Rochelle, IL

5:43 AM CST on November 13, 2019 (GMT -0600)
Rochelle

Weather History for KRPJ - September, 2019

Change the Weather History Date:

Sunday, September 1, 2019

  Actual Average (WUND) Record (WUND)
Temperature  
Mean Temperature 64 °F -  
Max Temperature 70 °F - - (-1)
Min Temperature 58 °F - - (-1)
Degree Days  
Heating Degree Days 2    
Growing Degree Days 14 (Base 50)    
Moisture  
Dew Point 62 °F    
Average Humidity 94    
Maximum Humidity 100    
Minimum Humidity 79    
Precipitation  
Precipitation 0.13 in - - ()
Sea Level Pressure  
Sea Level Pressure 30.14 in    
Wind  
Wind Speed 4 mph ()    
Max Wind Speed 9 mph    
Max Gust Speed -    
Visibility 7.7 miles    
Events Fog , Rain    
Averages and records for this station are not official NWS values.
T = Trace of Precipitation, MM = Missing Value Source: Averaged Metar Reports

Daily Weather History Graph

Daily Weather History Graph

Search for Another Location

Airport or City:

Astronomy

Sep. 01, 2019 Rise Set
Actual Time 6:21 AM CDT 7:30 PM CDT
Civil Twilight 5:53 AM CDT 7:58 PM CDT
Nautical Twilight 5:18 AM CDT 8:32 PM CDT
Astronomical Twilight 4:42 AM CDT 9:08 PM CDT
Moon 8:53 AM CDT (9/1) 9:15 PM CDT (9/1)
Length of Visible Light 14h 05m
Length of Day
13h 08m
Waxing Crescent, 8% of the Moon is Illuminated
Sep 1
Waxing Crescent
Sep 5
First Quarter
Sep 13
Full
Sep 21
Last Quarter
Sep 28
New

Hourly Weather History & Observations

Time (CDT) Temp. Dew Point Humidity Pressure Visibility Wind Dir Wind Speed Gust Speed Precip Events Conditions
12:15 AM 62.2 °F 61.0 °F 96% 30.21 in 10.0 mi East 9.2 mph - N/A   Light Drizzle
12:35 AM 62.4 °F 61.2 °F 96% 30.21 in 10.0 mi ENE 4.6 mph - N/A   Overcast
12:55 AM 62.6 °F 61.7 °F 97% 30.22 in 10.0 mi NE 4.6 mph - N/A   Light Drizzle
1:15 AM 62.2 °F 61.7 °F 98% 30.21 in 10.0 mi ENE 3.5 mph - N/A Rain Rain
1:35 AM 62.2 °F 61.9 °F 99% 30.20 in 7.0 mi ENE 5.8 mph - 0.03 in Rain Light Rain
1:55 AM 61.9 °F 61.9 °F 100% 30.20 in 5.0 mi East 4.6 mph - 0.07 in Rain Heavy Rain
2:15 AM 62.1 °F 62.1 °F 100% 30.20 in 4.0 mi East 3.5 mph - 0.05 in Rain Rain
2:35 AM 61.9 °F 61.9 °F 100% 30.19 in 7.0 mi East 3.5 mph - 0.06 in Rain Light Rain
2:55 AM 62.1 °F 62.1 °F 100% 30.18 in 5.0 mi East 3.5 mph - 0.06 in Rain Light Rain
3:15 AM 62.1 °F 62.1 °F 100% 30.18 in 5.0 mi East 4.6 mph - N/A   Light Drizzle
3:35 AM 62.6 °F 62.6 °F 100% 30.17 in 7.0 mi East 4.6 mph - N/A   Overcast
3:55 AM 62.6 °F 62.6 °F 100% 30.17 in 7.0 mi East 6.9 mph - N/A   Overcast
4:15 AM 62.6 °F 62.6 °F 100% 30.16 in 7.0 mi East 8.1 mph - N/A   Overcast
4:35 AM 62.6 °F 62.6 °F 100% 30.17 in 7.0 mi East 6.9 mph - N/A   Overcast
4:55 AM 62.6 °F 62.6 °F 100% 30.16 in 7.0 mi East 6.9 mph - N/A   Overcast
5:15 AM 62.8 °F 62.6 °F 99% 30.16 in 7.0 mi East 6.9 mph - N/A   Overcast
5:35 AM 62.8 °F 62.6 °F 99% 30.15 in 7.0 mi ENE 4.6 mph - N/A   Overcast
5:55 AM 62.6 °F 62.6 °F 100% 30.15 in 7.0 mi ENE 5.8 mph - N/A   Overcast
6:15 AM 62.6 °F 62.6 °F 100% 30.15 in 7.0 mi NE 5.8 mph - N/A   Overcast
6:35 AM 62.8 °F 62.8 °F 100% 30.15 in 7.0 mi NE 4.6 mph - N/A   Overcast
6:55 AM 62.6 °F 62.6 °F 100% 30.16 in 5.0 mi East 3.5 mph - N/A   Overcast
7:15 AM 62.6 °F 62.6 °F 100% 30.16 in 7.0 mi NNE 4.6 mph - N/A   Overcast
7:35 AM 62.8 °F 62.8 °F 100% 30.17 in 5.0 mi NE 5.8 mph - N/A   Overcast
7:55 AM 62.8 °F 62.8 °F 100% 30.17 in 5.0 mi NE 6.9 mph - N/A   Overcast
8:15 AM 62.8 °F 62.8 °F 100% 30.17 in 5.0 mi NE 4.6 mph - N/A   Overcast
8:40 AM 62.4 °F 62.4 °F 100% 30.17 in 2.0 mi East 5.8 mph - N/A   Overcast
8:55 AM 62.1 °F 62.1 °F 100% 30.16 in 1.5 mi East 6.9 mph - N/A   Overcast
9:15 AM 62.6 °F 62.6 °F 100% 30.15 in 5.0 mi ESE 5.8 mph - N/A   Overcast
9:35 AM 63.3 °F 62.8 °F 98% 30.16 in 10.0 mi ESE 6.9 mph - N/A   Overcast
9:55 AM 63.7 °F 62.1 °F 94% 30.16 in 10.0 mi East 6.9 mph - N/A   Overcast
10:15 AM 64.9 °F 62.4 °F 92% 30.15 in 10.0 mi ENE 5.8 mph - N/A   Overcast
10:35 AM 65.3 °F 62.4 °F 90% 30.15 in 10.0 mi NE 4.6 mph - N/A   Overcast
10:55 AM 64.8 °F 61.7 °F 90% 30.16 in 10.0 mi NE 4.6 mph - N/A   Overcast
11:15 AM 65.1 °F 61.7 °F 89% 30.16 in 10.0 mi ENE 3.5 mph - N/A   Overcast
11:35 AM 65.5 °F 62.1 °F 89% 30.16 in 10.0 mi Calm Calm - N/A   Overcast
11:55 AM 65.5 °F 61.5 °F 87% 30.15 in 10.0 mi Calm Calm - N/A   Overcast
12:15 PM 66.0 °F 62.1 °F 87% 30.15 in 10.0 mi Calm Calm - N/A   Overcast
12:35 PM 66.6 °F 62.2 °F 86% 30.14 in 10.0 mi Calm Calm - N/A   Overcast
12:55 PM 66.9 °F 62.6 °F 86% 30.14 in 10.0 mi Calm Calm - N/A   Overcast
1:15 PM 68.0 °F 63.1 °F 84% 30.13 in 10.0 mi Calm Calm - N/A   Overcast
1:35 PM 68.0 °F 62.8 °F 83% 30.13 in 10.0 mi Calm Calm - N/A   Overcast
1:55 PM 68.7 °F 63.7 °F 84% 30.12 in 10.0 mi NNE 3.5 mph - N/A   Overcast
2:15 PM 69.1 °F 64.0 °F 84% 30.12 in 10.0 mi North 4.6 mph - N/A   Overcast
2:35 PM 68.5 °F 63.7 °F 84% 30.11 in 10.0 mi NNW 3.5 mph - N/A   Overcast
2:55 PM 68.9 °F 63.3 °F 82% 30.11 in 10.0 mi NNE 3.5 mph - N/A   Overcast
3:15 PM 69.4 °F 63.5 °F 81% 30.10 in 10.0 mi North 4.6 mph - N/A   Overcast
3:35 PM 68.9 °F 63.9 °F 84% 30.10 in 10.0 mi North 4.6 mph - N/A   Overcast
3:55 PM 68.9 °F 63.9 °F 84% 30.09 in 10.0 mi North 5.8 mph - N/A   Overcast
4:15 PM 69.1 °F 64.0 °F 84% 30.09 in 10.0 mi North 3.5 mph - N/A   Overcast
4:35 PM 68.9 °F 63.3 °F 82% 30.09 in 10.0 mi NNW 4.6 mph - N/A   Overcast
4:55 PM 68.9 °F 63.5 °F 83% 30.09 in 10.0 mi North 3.5 mph - N/A   Overcast
5:15 PM 68.9 °F 63.3 °F 82% 30.09 in 10.0 mi NNW 3.5 mph - N/A   Overcast
5:35 PM 69.1 °F 63.1 °F 81% 30.09 in 10.0 mi Calm Calm - N/A   Overcast
5:55 PM 69.3 °F 62.4 °F 79% 30.09 in 10.0 mi Calm Calm - N/A   Overcast
6:15 PM 69.8 °F 63.0 °F 79% 30.09 in 10.0 mi Calm Calm - N/A   Overcast
6:35 PM 69.1 °F 64.0 °F 84% 30.09 in 10.0 mi Calm Calm - N/A   Overcast
6:55 PM 68.5 °F 64.0 °F 85% 30.09 in 10.0 mi Calm Calm - N/A   Overcast
7:15 PM 67.5 °F 65.3 °F 93% 30.08 in 10.0 mi Calm Calm - N/A   Overcast
7:35 PM 65.8 °F 64.8 °F 96% 30.08 in 10.0 mi Calm Calm - N/A   Overcast
7:55 PM 65.8 °F 64.6 °F 96% 30.08 in 10.0 mi Calm Calm - N/A   Overcast
8:15 PM 66.2 °F 64.4 °F 94% 30.09 in 10.0 mi Calm Calm - N/A   Overcast
8:35 PM 64.4 °F 63.9 °F 98% 30.09 in 7.0 mi Calm Calm - N/A   Mostly Cloudy
8:55 PM 62.6 °F 62.6 °F 100% 30.09 in 7.0 mi Calm Calm - N/A   Scattered Clouds
9:15 PM 63.1 °F 63.0 °F 99% 30.09 in 10.0 mi Calm Calm - N/A   Clear
9:35 PM 62.1 °F 62.1 °F 100% 30.09 in 5.0 mi Calm Calm - N/A   Clear
9:55 PM 61.2 °F 61.2 °F 100% 30.09 in 7.0 mi SSW 3.5 mph - N/A   Clear
10:15 PM 60.1 °F 60.1 °F 100% 30.10 in 4.0 mi Calm Calm - N/A   Clear
10:35 PM 59.7 °F 59.7 °F 100% 30.10 in 3.0 mi SSW 4.6 mph - N/A   Clear
10:55 PM 59.4 °F 59.4 °F 100% 30.10 in 1.5 mi Calm Calm - N/A   Mostly Cloudy
11:15 PM 58.8 °F 58.8 °F 100% 30.10 in 0.2 mi Calm Calm - N/A Fog Fog
11:35 PM 58.1 °F 58.1 °F 100% 30.11 in 0.2 mi Calm Calm - N/A Fog Fog
11:55 PM 58.1 °F 58.1 °F 100% 30.11 in 0.8 mi Calm Calm - N/A   Overcast